Weather History for West Palm Beach, FL

Change the Weather History Date:

Friday, September 13, 2013

  Actual Average Record
Temperature  
Mean Temperature 81 °F 82 °F  
Max Temperature 88 °F 89 °F 95 °F (1944)
Min Temperature 73 °F 75 °F 67 °F (1931)
Degree Days  
Heating Degree Days 0 0  
Month to date heating degree days 0 0  
Since 1 July heating degree days 0 0  
Cooling Degree Days 16 17  
Month to date cooling degree days 229 221  
Year to date cooling degree days 3113 2927  
Growing Degree Days 30 (Base 50)    
Moisture  
Dew Point 75 °F    
Average Humidity 84    
Maximum Humidity 100    
Minimum Humidity 68    
Precipitation  
Precipitation T in 0.29 in 5.11 in (2001)
Month to date precipitation 1.83 3.63  
Year to date precipitation 49.45 44.35  
Snow  
Snow 0.00 in - - ()
Month to date snowfall 0.0  
Since 1 July snowfall 0.0  
Since 1 September snowfall 0.0  
Snow Depth 0.00 in    
Sea Level Pressure  
Sea Level Pressure 29.87 in    
Wind  
Wind Speed 5 mph (East)    
Max Wind Speed 12 mph    
Max Gust Speed 15 mph    
Visibility 10 miles    
Events Rain , Thunderstorm    
T = Trace of Precipitation, MM = Missing Value Source: NWS Daily Summary

Daily Weather History Graph

Daily Weather History Graph

Search for Another Location

Airport:

Trip Planner

Search our weather history database for the weather conditions in past years. The results will help you decide how hot, cold, wet, or windy it might be!

Date:

Astronomy

Sep. 13, 2013 Rise Set
Actual Time 7:05 AM EDT 7:26 PM EDT
Civil Twilight 6:41 AM EDT 7:49 PM EDT
Nautical Twilight 6:14 AM EDT 8:17 PM EDT
Astronomical Twilight 5:47 AM EDT 8:44 PM EDT
Moon 2:51 PM EDT (9/13) 12:57 AM EDT (9/13)
Length of Visible Light 13h 08m
Length of Day
12h 21m
First Quarter, 61% of the Moon is Illuminated
Sep 13
First Quarter
Sep 19
Full
Sep 26
Last Quarter
Oct 4
New
Oct 11
First Quarter

Hourly Weather History & Observations

Time (EDT) Temp. Heat Index Dew Point Humidity Pressure Visibility Wind Dir Wind Speed Gust Speed Precip Events Conditions
12:53 AM 77.0 °F - 75.9 °F 96% 29.90 in 10.0 mi North 3.5 mph - 0.02 in Rain , Thunderstorm Light Thunderstorms and Rain
1:04 AM 77.0 °F - 75.2 °F 94% 29.89 in 10.0 mi Calm Calm - 0.00 in Rain Light Rain
1:53 AM 77.0 °F - 75.9 °F 96% 29.89 in 10.0 mi NW 8.1 mph - 0.00 in   Overcast
2:12 AM 77.0 °F - 75.2 °F 94% 29.89 in 10.0 mi NNW 6.9 mph - 0.00 in Rain Light Rain
2:22 AM 75.2 °F - 75.2 °F 100% 29.88 in 10.0 mi North 4.6 mph - 0.00 in Rain , Thunderstorm Light Thunderstorms and Rain
2:53 AM 75.9 °F - 75.0 °F 97% 29.88 in 10.0 mi ESE 5.8 mph - 0.00 in Rain , Thunderstorm Light Thunderstorms and Rain
3:06 AM 77.0 °F - 75.2 °F 94% 29.89 in 10.0 mi East 10.4 mph - 0.00 in Rain , Thunderstorm Light Thunderstorms and Rain
3:29 AM 77.0 °F - 73.4 °F 89% 29.88 in 10.0 mi East 6.9 mph - 0.00 in   Mostly Cloudy
3:53 AM 75.9 °F - 73.9 °F 94% 29.87 in 10.0 mi East 6.9 mph - 0.00 in   Mostly Cloudy
4:53 AM 75.9 °F - 73.9 °F 94% 29.86 in 10.0 mi Calm Calm - N/A   Mostly Cloudy
5:53 AM 73.0 °F - 73.0 °F 100% 29.86 in 10.0 mi NW 3.5 mph - N/A   Scattered Clouds
6:53 AM 73.0 °F - 73.0 °F 100% 29.88 in 10.0 mi NW 4.6 mph - N/A   Scattered Clouds
7:53 AM 75.9 °F - 75.0 °F 97% 29.88 in 10.0 mi Calm Calm - N/A   Scattered Clouds
8:53 AM 80.1 °F 85.4 °F 75.9 °F 87% 29.90 in 10.0 mi Calm Calm - N/A   Scattered Clouds
9:53 AM 82.9 °F 91.8 °F 77.0 °F 82% 29.90 in 10.0 mi Calm Calm - N/A   Scattered Clouds
10:44 AM 84.2 °F 92.3 °F 75.2 °F 74% 29.90 in 10.0 mi Calm Calm - N/A   Mostly Cloudy
10:53 AM 86.0 °F 96.0 °F 75.9 °F 72% 29.90 in 10.0 mi Calm Calm - N/A   Mostly Cloudy
11:53 AM 84.9 °F 93.3 °F 75.0 °F 72% 29.90 in 10.0 mi Calm Calm - 0.00 in Rain Light Rain
12:45 PM 86.0 °F 95.1 °F 75.2 °F 70% 29.88 in 10.0 mi East 8.1 mph - 0.00 in   Mostly Cloudy
12:53 PM 87.1 °F 97.3 °F 75.9 °F 69% 29.88 in 10.0 mi ENE 8.1 mph - 0.00 in   Mostly Cloudy
1:53 PM 86.0 °F 95.1 °F 75.0 °F 70% 29.86 in 10.0 mi East 8.1 mph - N/A   Mostly Cloudy
2:53 PM 86.0 °F 96.0 °F 75.9 °F 72% 29.84 in 10.0 mi ESE 8.1 mph - 0.00 in   Mostly Cloudy
3:53 PM 87.1 °F 97.3 °F 75.9 °F 69% 29.82 in 10.0 mi East 10.4 mph - N/A   Scattered Clouds
4:53 PM 86.0 °F 95.1 °F 75.0 °F 70% 29.82 in 10.0 mi East 8.1 mph - N/A   Scattered Clouds
5:53 PM 84.9 °F 93.3 °F 75.0 °F 72% 29.81 in 10.0 mi ESE 9.2 mph - N/A   Scattered Clouds
6:53 PM 84.0 °F 91.9 °F 75.0 °F 74% 29.83 in 10.0 mi ESE 10.4 mph - N/A   Scattered Clouds
7:53 PM 82.9 °F 90.8 °F 75.9 °F 79% 29.83 in 10.0 mi SE 6.9 mph - N/A   Scattered Clouds
8:53 PM 82.0 °F 89.4 °F 75.9 °F 82% 29.84 in 10.0 mi ESE 6.9 mph - N/A   Partly Cloudy
9:53 PM 82.0 °F 88.6 °F 75.0 °F 79% 29.86 in 10.0 mi SE 5.8 mph - N/A   Scattered Clouds
10:53 PM 82.0 °F 87.9 °F 73.9 °F 76% 29.87 in 10.0 mi SE 3.5 mph - N/A   Partly Cloudy
11:53 PM 81.0 °F 86.2 °F 73.9 °F 79% 29.86 in 10.0 mi South 4.6 mph - N/A   Partly Cloudy